Location: Hac?musa Deresi
(39.1694°N, 32.2508°E)
Time: 11:26:05
(UTC+00:00)

Spot 3 - Pass Details

Date: 22 April 2026
Orbit: 813 x 837 km, 98.9° (Epoch: 12 May)

Event Time Altitude Azimuth Distance (km) Brightness Sun altitude
Exits shadow 19:08:57 74° 190° (S) 846 4.5 -26.3°
Maximum altitude 19:09:25 84° 256° (WSW) 823 4.5 -26.4°
Drops below altitude 10° 19:14:45 10° 345° (NNW) 2,410 7.8 -27.1°
Sets 19:17:06 0° 346° (NNW) 3,347 8.7 -27.4°
